Regional Weather Roundup
Issued by NWS

Home | Current Version | Previous Version | Text Only | Print | Product List | Glossary On
Versions: 1 2 3 4 5 6 7 8 9 10 11 12 13 14 15 16 17 18 19 20 21 22 23 24 25 26 27 28 29 30 31 32 33 34 35 36 37 38 39 40 41 42 43 44 45 46 47 48 49 50
000
ASUS43 KDTX 041310
RWRMI
MICHIGAN HOURLY REGIONAL WEATHER ROUNDUP
NATIONAL WEATHER SERVICE DETROIT/PONTIAC MI
900 AM EDT FRI SEP 04 2015

NOTE: "FAIR" INDICATES FEW OR NO CLOUDS BELOW 12,000 FEET WITH NO
SIGNIFICANT WEATHER AND/OR OBSTRUCTION TO VISIBILITY.

MIZ047>049-052>055-059>063-066>070-074>076-081>083-041400-
SOUTHEAST LOWER MICHIGAN

CITY           SKY/WX    TMP DP  RH WIND       PRES   REMARKS
ADRIAN         PTSUNNY   68  66  93 NW3       30.02R
ALMA           FOG       67  67 100 E3        30.00R VSB 1/4
ANN ARBOR      CLOUDY    67  66  97 S5        30.01R
BAD AXE        LGT RAIN  68  68  99 SE5       30.04S
CARO           CLOUDY    68  67  97 E6        30.01S FOG
DETROIT CITY   PTSUNNY   72  68  87 E6        30.02R
DETROIT        PTSUNNY   72  67  84 SE7       30.02R
FLINT          CLOUDY    73  66  78 S9        30.01R
GROSSE ILE     MOSUNNY   73  68  83 S13       30.00R
HILLSDALE      CLOUDY    70  70 100 SW3       30.01S FOG
HOWELL         CLOUDY    67  66  96 SE5       30.01R FOG

CITY           SKY/WX    TMP DP  RH WIND       PRES   REMARKS
JACKSON        CLOUDY    68  66  93 W7        30.01R FOG
LAMBERTVILLE   SUNNY     72  67  86 S3        30.01R
LANSING        CLOUDY    68  67  96 W5        30.01R FOG
LAPEER         CLOUDY    69  68  98 CALM      30.03R FOG
MASON          CLOUDY    69  65  88 W5        30.01R FOG
MONROE         CLOUDY    71  66  85 S8        30.00R
MT. CLEMENS    PTSUNNY   71  69  95 E8        30.01R
PONTIAC        CLOUDY    69  67  93 SE7       30.02R
PORT HOPE        N/A     70  68  93 SE6       30.02R
PORT HURON     PTSUNNY   68  68 100 CALM      30.03S
TRI CITIES     CLOUDY    70  67  90 E7        30.01R FOG
MIDLAND        CLOUDY    69  67  96 E6        30.00R FOG
TROY           MOSUNNY   71  69  93 CALM      30.04R
SAGINAW HB     CLOUDY    68  68 100 E6        30.00R FOG
$$
MIZ043>046-050>051-056>058-064>065-071>073-077>080-041400-
SOUTHWEST LOWER MICHIGAN

CITY           SKY/WX    TMP DP  RH WIND       PRES   REMARKS
BATTLE CREEK   CLOUDY    69  66  90 W5        30.02R FOG
BENTON HARBOR  CLOUDY    70  65  84 CALM      30.01R
BIG RAPIDS     CLOUDY    67  66  97 CALM      30.00S FOG
COLDWATER      CLOUDY    68  67  95 CALM      30.01S FOG
FREMONT        CLOUDY    67  67 100 CALM      29.99S FOG
HOLLAND        CLOUDY    70  67  90 NW5       30.01R
GRAND RAPIDS   CLOUDY    69  67  93 W3        30.00R FOG
IONIA          LGT RAIN  69  69 100 W5        29.99R
KALAMAZOO      CLOUDY    71  64  78 N3        30.01R
LUDINGTON      CLOUDY    71  68  92 CALM      30.01R
MARSHALL       CLOUDY    69  66  90 SW5       30.01R FOG
MOUNT PLEASANT CLOUDY    69  67  94 E5        30.00R FOG
MUSKEGON       CLOUDY    72  66  81 W3        29.99S
SOUTH HAVEN    MOSUNNY   71  65  81 CALM      30.00S
$$
MIZ016>042-041400-
NORTHERN LOWER MICHIGAN

CITY           SKY/WX    TMP DP  RH WIND       PRES   REMARKS
ALPENA         CLOUDY    69  67  93 E7        30.06R FOG
BEAVER ISLAND  PTSUNNY   67  59  77 E7        30.05R
BELLAIRE       PTSUNNY   68  66  92 N3        30.03R
CADILLAC       CLOUDY    66  65  95 NE3       30.03R
CHARLEVOIX     CLOUDY    67  63  84 E6        30.07R
FRANKFORT      CLOUDY    69  66  91 E5        30.01S
GAYLORD        CLOUDY    67  67 100 NE7       30.05R FOG
GRAYLING       CLOUDY    65  65  97 E5        30.04S FOG
HARBOR SPRINGS CLOUDY    66  61  82 NE9       30.04R
HOUGHTON LAKE  CLOUDY    66  65  96 E7        30.03R
MANISTEE       CLOUDY    68  63  83 NE6       30.02R
OSCODA         CLOUDY    69  69  98 SE6       30.03R FOG
PELLSTON       PTSUNNY   68  60  75 E6        30.06R
ROGERS CITY    CLOUDY    68  66  91 E6        30.06R
TRAVERSE CITY  CLOUDY    70  65  84 NE5       30.01R
$$
MIZ007>008-015-041400-
EASTERN UPPER MICHIGAN

CITY           SKY/WX    TMP DP  RH WIND       PRES   REMARKS
KINROSS        MOSUNNY   68  57  68 E13       30.07S
MACKINAC ISLAN MOSUNNY   65  59  80 NE12      30.06R
NEWBERRY       SUNNY     64  60  87 NE3       30.07S
S. S. MARIE    MOSUNNY   67  56  67 E6        30.07S
MUNISING         N/A     67  58  72 CALM      30.05S
$$
MIZ004>006-011>014-085-041400-
CENTRAL UPPER MICHIGAN

CITY           SKY/WX    TMP DP  RH WIND       PRES   REMARKS
MANISTIQUE     SUNNY     65  59  80 NE6       30.04S
ESCANABA       SUNNY     66  61  82 NE6       30.02S
MENOMINEE      SUNNY     66  61  82 NE8       30.02R
SAWYER-GWINN   SUNNY     66  59  77 CALM      30.07R
$$
MIZ001>003-009>011-084-041400-
WESTERN UPPER MICHIGAN

CITY           SKY/WX    TMP DP  RH WIND       PRES   REMARKS
IRON MOUNTAIN  SUNNY     64  60  87 CALM      30.05S
HOUGHTON       SUNNY     65  59  81 E5        30.06R
COPPER HARBOR    N/A     67  59  75 CALM      30.06R
IRONWOOD       SUNNY     66  63  88 CALM      30.03R
$$

ABBREVIATIONS USED IN REMARKS
   TC - TEMPERATURE IN CELSIUS
  WCI - WIND CHILL INDEX
   HX - HEAT INDEX
  VSB - VISIBILITY



USA.gov is the U.S. government's official web portal to all federal, state and local government web resources and services.